When you browse on this site, cookies collect data to enhance your experience and personalize the content and advertising you see.
Visit our Privacy Policy to learn more. By continuing to use the site, you agree to this use of cookies and data.
  • In Norway
  • List of Countries
  • For 7 days
  • Water Temperature
  • Satellite Maps
  • Weather Map
  • Weather Widgets
  • user-avatar
    Login

    Hourly Weather Newcastle

    Today, 13 December, Thursday

    Time Temperature Precipitation Wind Pressure Humidity
    00:00 +20°C° 0 mm 4 mps 756 mmHg 96%
    01:00 +20°C° 0 mm 3 mps 755 mmHg 97%
    02:00 +20°C° 0.1 mm 3 mps 755 mmHg 97%
    03:00 +20°C° 0.1 mm 4 mps 754 mmHg 97%
    04:00 +20°C° 0 mm 3 mps 753 mmHg 98%
    05:00 +21°C° 0 mm 3 mps 753 mmHg 93%
    06:00 +22°C° 0 mm 3 mps 753 mmHg 89%
    07:00 +24°C° 0 mm 3 mps 753 mmHg 84%
    08:00 +27°C° 0 mm 3 mps 753 mmHg 71%
    09:00 +30°C° 0 mm 4 mps 752 mmHg 57%
    10:00 +34°C° 0 mm 3 mps 752 mmHg 47%
    11:00 +33°C° 0 mm 4 mps 751 mmHg 47%
    12:00 +33°C° 0 mm 4 mps 751 mmHg 48%
    13:00 +33°C° 0 mm 4 mps 750 mmHg 49%
    14:00 +32°C° 0.1 mm 5 mps 750 mmHg 55%
    15:00 +29°C° 0.1 mm 6 mps 750 mmHg 60%
    16:00 +28°C° 0.1 mm 7 mps 749 mmHg 66%
    17:00 +27°C° 0.3 mm 7 mps 749 mmHg 71%
    18:00 +26°C° 0.3 mm 8 mps 749 mmHg 77%
    19:00 +26°C° 0.3 mm 8 mps 749 mmHg 82%
    20:00 +24°C° 0.1 mm 7 mps 749 mmHg 84%
    21:00 +24°C° 0.1 mm 7 mps 749 mmHg 86%
    22:00 +21°C° 0 mm 2 mps 750 mmHg 97%
    23:00 +21°C° 0.5 mm 2 mps 749 mmHg 97%

    Tomorrow, 14 December, Friday

    Time Temperature Precipitation Wind Pressure Humidity
    00:00 +21°C° 0.5 mm 2 mps 749 mmHg 96%
    01:00 +21°C° 0.5 mm 3 mps 749 mmHg 96%
    02:00 +21°C° 0.1 mm 2 mps 749 mmHg 96%
    03:00 +20°C° 0.1 mm 2 mps 749 mmHg 96%
    04:00 +21°C° 0.1 mm 1 mps 749 mmHg 96%
    05:00 +23°C° 0 mm 1 mps 749 mmHg 92%
    06:00 +24°C° 0 mm 2 mps 750 mmHg 88%
    07:00 +25°C° 0 mm 2 mps 750 mmHg 83%
    08:00 +28°C° 0 mm 2 mps 750 mmHg 72%
    09:00 +30°C° 0 mm 2 mps 750 mmHg 60%
    10:00 +34°C° 0 mm 3 mps 750 mmHg 49%
    11:00 +33°C° 0.5 mm 3 mps 750 mmHg 53%
    12:00 +33°C° 0.5 mm 4 mps 750 mmHg 58%
    13:00 +32°C° 0.5 mm 4 mps 750 mmHg 62%
    14:00 +30°C° 0.7 mm 5 mps 750 mmHg 67%
    15:00 +30°C° 0.7 mm 5 mps 750 mmHg 71%
    16:00 +29°C° 0.7 mm 6 mps 750 mmHg 75%
    17:00 +28°C° 1.4 mm 6 mps 750 mmHg 80%
    18:00 +27°C° 1.4 mm 5 mps 751 mmHg 84%
    19:00 +26°C° 1.4 mm 5 mps 751 mmHg 89%
    20:00 +25°C° 0.6 mm 5 mps 751 mmHg 91%
    21:00 +23°C° 0.6 mm 5 mps 752 mmHg 92%
    22:00 +23°C° 0.6 mm 6 mps 753 mmHg 94%
    23:00 +22°C° 0.3 mm 6 mps 753 mmHg 94%

    Day after tomorrow, 15 December, Saturday

    Time Temperature Precipitation Wind Pressure Humidity
    00:00 +22°C° 0.3 mm 5 mps 753 mmHg 95%
    01:00 +21°C° 0.3 mm 5 mps 753 mmHg 95%
    02:00 +21°C° 0 mm 5 mps 753 mmHg 95%
    03:00 +21°C° 0 mm 4 mps 753 mmHg 95%
    04:00 +21°C° 0 mm 4 mps 753 mmHg 95%
    05:00 +22°C° 0.1 mm 5 mps 753 mmHg 92%
    06:00 +23°C° 0.1 mm 5 mps 754 mmHg 89%
    07:00 +24°C° 0.1 mm 6 mps 754 mmHg 86%
    08:00 +27°C° 0 mm 6 mps 754 mmHg 77%
    09:00 +29°C° 0 mm 7 mps 754 mmHg 68%
    10:00 +32°C° 0 mm 7 mps 754 mmHg 59%
    11:00 +32°C° 2 mm 8 mps 754 mmHg 64%
    12:00 +32°C° 2 mm 8 mps 753 mmHg 68%
    13:00 +32°C° 2 mm 8 mps 753 mmHg 73%
    14:00 +32°C° 1.8 mm 9 mps 753 mmHg 70%
    15:00 +32°C° 1.8 mm 9 mps 752 mmHg 66%
    16:00 +32°C° 1.8 mm 9 mps 752 mmHg 63%
    17:00 +31°C° 0.9 mm 9 mps 752 mmHg 68%
    18:00 +29°C° 0.9 mm 9 mps 753 mmHg 73%
    19:00 +28°C° 0.9 mm 9 mps 753 mmHg 78%
    20:00 +27°C° 0.5 mm 9 mps 753 mmHg 79%
    21:00 +26°C° 0.5 mm 8 mps 754 mmHg 80%
    22:00 +26°C° 0.5 mm 8 mps 754 mmHg 82%
    23:00 +24°C° 0 mm 7 mps 754 mmHg 84%

    16 December, Sunday

    Time Temperature Precipitation Wind Pressure Humidity
    00:00 +24°C° 0 mm 7 mps 754 mmHg 86%
    01:00 +23°C° 0 mm 6 mps 754 mmHg 88%
    02:00 +23°C° 0 mm 6 mps 755 mmHg 89%
    03:00 +22°C° 0 mm 6 mps 755 mmHg 90%
    04:00 +22°C° 0 mm 6 mps 755 mmHg 91%
    05:00 +23°C° 0 mm 6 mps 755 mmHg 86%
    06:00 +26°C° 0 mm 6 mps 755 mmHg 80%
    07:00 +27°C° 0 mm 6 mps 756 mmHg 75%
    08:00 +29°C° 0 mm 6 mps 756 mmHg 67%
    09:00 +32°C° 0 mm 6 mps 756 mmHg 58%
    10:00 +34°C° 0 mm 6 mps 756 mmHg 50%
    11:00 +35°C° 0 mm 6 mps 755 mmHg 49%
    12:00 +35°C° 0 mm 7 mps 755 mmHg 48%
    13:00 +36°C° 0 mm 7 mps 754 mmHg 47%
    14:00 +34°C° 0.5 mm 7 mps 754 mmHg 53%
    15:00 +33°C° 0.5 mm 7 mps 754 mmHg 59%
    16:00 +30°C° 0.5 mm 7 mps 754 mmHg 65%
    17:00 +29°C° 0.6 mm 8 mps 754 mmHg 70%
    18:00 +28°C° 0.6 mm 8 mps 754 mmHg 75%
    19:00 +27°C° 0.6 mm 8 mps 754 mmHg 80%
    20:00 +26°C° 3.5 mm 8 mps 755 mmHg 85%
    21:00 +24°C° 3.5 mm 7 mps 756 mmHg 90%
    22:00 +23°C° 3.5 mm 7 mps 756 mmHg 95%
    23:00 +23°C° 0.2 mm 7 mps 756 mmHg 95%

    17 December, Monday

    Time Temperature Precipitation Wind Pressure Humidity
    00:00 +23°C° 0.2 mm 6 mps 756 mmHg 95%
    01:00 +23°C° 0.2 mm 6 mps 755 mmHg 94%
    02:00 +22°C° 0 mm 5 mps 755 mmHg 95%
    03:00 +22°C° 0 mm 4 mps 755 mmHg 95%
    04:00 +21°C° 0 mm 3 mps 755 mmHg 95%
    05:00 +24°C° 0 mm 3 mps 756 mmHg 89%
    06:00 +25°C° 0 mm 3 mps 756 mmHg 83%
    07:00 +26°C° 0 mm 3 mps 756 mmHg 76%
    08:00 +29°C° 0 mm 4 mps 756 mmHg 67%
    09:00 +33°C° 0 mm 4 mps 756 mmHg 57%
    10:00 +35°C° 0 mm 4 mps 756 mmHg 47%
    11:00 +36°C° 0 mm 4 mps 756 mmHg 43%
    12:00 +39°C° 0 mm 5 mps 755 mmHg 38%
    13:00 +40°C° 0 mm 5 mps 755 mmHg 34%
    14:00 +38°C° 0 mm 6 mps 755 mmHg 41%
    15:00 +35°C° 0 mm 6 mps 755 mmHg 47%
    16:00 +33°C° 0 mm 6 mps 754 mmHg 54%
    17:00 +32°C° 0 mm 6 mps 755 mmHg 60%
    18:00 +30°C° 0 mm 6 mps 755 mmHg 65%
    19:00 +29°C° 0 mm 6 mps 756 mmHg 71%
    20:00 +29°C° 0 mm 6 mps 756 mmHg 72%
    21:00 +28°C° 0 mm 5 mps 757 mmHg 74%
    22:00 +27°C° 0 mm 5 mps 757 mmHg 76%
    23:00 +27°C° 0 mm 4 mps 757 mmHg 77%

    18 December, Tuesday

    Time Temperature Precipitation Wind Pressure Humidity
    00:00 +26°C° 0 mm 4 mps 757 mmHg 79%
    01:00 +25°C° 0 mm 3 mps 756 mmHg 80%
    02:00 +25°C° 0 mm 3 mps 757 mmHg 82%
    03:00 +25°C° 0 mm 3 mps 757 mmHg 84%
    04:00 +25°C° 0 mm 4 mps 757 mmHg 86%
    05:00 +25°C° 0 mm 4 mps 758 mmHg 84%
    06:00 +25°C° 0 mm 4 mps 758 mmHg 82%
    07:00 +26°C° 0 mm 5 mps 759 mmHg 81%
    08:00 +28°C° 0 mm 4 mps 759 mmHg 72%
    09:00 +30°C° 0 mm 4 mps 759 mmHg 64%
    10:00 +33°C° 0 mm 4 mps 759 mmHg 55%
    11:00 +34°C° 0 mm 4 mps 759 mmHg 53%
    12:00 +35°C° 0 mm 5 mps 758 mmHg 51%
    13:00 +35°C° 0 mm 5 mps 758 mmHg 49%
    14:00 +34°C° 0 mm 5 mps 758 mmHg 54%
    15:00 +32°C° 0 mm 4 mps 758 mmHg 60%
    16:00 +29°C° 0 mm 4 mps 758 mmHg 66%
    17:00 +28°C° 0 mm 4 mps 759 mmHg 72%
    18:00 +26°C° 0 mm 3 mps 759 mmHg 78%
    19:00 +25°C° 0 mm 2 mps 760 mmHg 85%
    20:00 +24°C° 0 mm 3 mps 760 mmHg 87%
    21:00 +24°C° 0 mm 3 mps 761 mmHg 90%
    22:00 +22°C° 0 mm 3 mps 761 mmHg 93%
    23:00 +22°C° 0 mm 3 mps 761 mmHg 93%
    Show more